Terminal Aerodrome Forecast
Issued by NWS Blacksburg, VA

Current Version | Previous Version | Text Only | Print | Product List | Glossary Off
Versions: 1 2 3 4 5 6 7 8 9 10 11 12 13 14 15 16 17 18 19 20 21 22 23 24 25 26 27 28 29 30 31 32

750
FTUS41 KRNK 300816 AAA
TAFBLF
TAF AMD
KBLF 300816Z 3008/3106 00000KT 4SM BR VCSH SCT002 BKN100
      TEMPO 3009/3011 1SM BR BKN002
     FM301200 VRB03KT P6SM SCT025 OVC100
     FM301600 34006KT P6SM BKN035
     FM310000 00000KT P6SM SCT045 BKN250=

USA.gov is the U.S. government's official web portal to all federal, state and local government web resources and services.